User: anonymous   Login
Location: Unspecified
(0.0000°N, 0.0000°E)
Time: 00:19:14
(UTC+00:00)
Language:

CUBEBUG 1 - Orbit

View from above orbital plane
View from above orbital plane
View from above satellite
View from above satellite

Ground track
Ground track

The orbit data is extracted from the following two-line orbital elements,

1 39153U 13018D   17231.50077098  .00000246  00000-0  39340-4 0  9999
2 39153  97.9861 323.4628 0016623 198.9398 161.1198 14.80207872232953
Epoch (UTC): 19 August 2017 12:01:06
Eccentricity: 0.0016623
inclination: 97.9861°
perigee height: 617 km
apogee height: 640 km
right ascension of ascending node: 323.4628°
argument of perigee: 198.9398°
revolutions per day: 14.80207872
mean anomaly at epoch: 161.1198°
orbit number at epoch: 23295

The dashed part of the orbit path shows where the satellite is in the earth's shadow,  

DLR